Date,TemperatureHighF,TemperatureAvgF,TemperatureLowF,DewpointHighF,DewpointAvgF,DewpointLowF,HumidityHigh,HumidityAvg,HumidityLow,PressureMaxIn,PressureMinIn,WindSpeedMaxMPH,WindSpeedAvgMPH,GustSpeedMaxMPH,PrecipitationSumIn
2013-5-1,92.3,77.9,67.5,67.7,65.9,64.3,93,69,43,29.90,29.73,10,2,10,0.00
2013-5-2,75.8,55.0,47.9,65.2,47.9,36.0,96,77,59,30.34,29.85,15,2,15,0.05
2013-5-3,73.8,55.5,39.4,36.7,31.6,23.7,81,47,16,30.34,30.06,12,1,12,0.00
2013-5-4,86.3,60.9,35.8,43.8,34.7,26.3,90,49,12,30.07,29.85,12,1,12,0.00
2013-5-5,82.3,63.4,45.1,47.2,42.7,36.8,76,50,27,30.13,29.97,7,0,7,0.00
2013-5-6,80.8,62.8,46.7,50.5,47.4,43.8,93,62,31,30.13,29.97,6,0,6,0.00
2013-5-7,90.4,69.0,45.5,55.7,49.2,43.6,96,57,22,30.06,29.88,11,1,11,0.00
2013-5-8,84.9,74.1,63.5,64.0,61.0,53.3,88,65,46,29.97,29.82,11,2,11,0.00
2013-5-9,79.8,71.6,65.0,69.5,65.9,62.0,94,83,69,29.94,29.81,10,1,10,0.07
2013-5-10,92.3,71.0,59.6,69.3,62.8,57.2,97,79,33,30.00,29.76,15,1,15,2.11
2013-5-11,85.8,58.6,59.5,64.8,27.9,-99.9,99,52,31,30.12,29.96,8,-186,8,0.00
2013-5-12,85.8,67.7,52.8,57.8,52.2,43.1,97,63,27,30.24,30.08,7,0,7,0.00
2013-5-13,91.3,69.4,47.5,56.8,50.7,43.5,97,60,20,30.24,30.10,9,1,9,0.00
2013-5-14,89.6,75.1,59.8,67.0,60.2,54.7,92,63,36,30.17,29.94,14,2,14,0.00
2013-5-15,88.3,75.4,65.6,72.9,68.5,63.4,97,81,54,30.04,29.75,15,3,15,0.62
2013-5-16,95.6,78.7,68.7,72.8,70.0,67.1,97,77,42,29.82,29.64,12,2,12,0.08
2013-5-17,96.5,69.4,74.8,73.5,44.8,-99.9,87,61,43,29.83,29.72,10,-150,10,0.00
2013-5-18,96.4,82.9,72.1,71.2,67.5,62.0,90,63,39,29.85,29.73,16,3,16,0.00
2013-5-19,93.4,81.9,72.6,72.5,68.8,65.1,85,66,47,29.78,29.64,14,3,14,0.04
2013-5-20,94.7,82.6,73.4,71.4,69.3,66.0,87,67,43,29.78,29.62,15,3,15,0.00
2013-5-21,77.8,75.5,74.4,71.5,70.6,70.1,87,85,79,29.77,29.69,10,2,10,0.00
2013-5-22,95.2,78.3,56.8,72.1,60.4,52.2,94,59,27,29.89,29.75,3,1,7,0.00
2013-5-23,90.1,81.3,74.5,72.8,71.2,69.9,90,73,54,29.98,29.81,11,2,13,0.00
2013-5-24,83.8,47.1,68.9,74.0,5.0,-99.9,92,51,68,30.08,29.95,14,-386,14,0.41
2013-5-25,83.2,31.3,74.2,72.1,-31.6,-99.9,89,31,65,30.08,29.97,13,-595,13,0.00
2013-5-26,74.3,73.5,71.9,71.2,70.7,70.0,97,91,87,30.04,29.99,6,1,6,0.09
2013-5-27,90.4,79.1,72.5,72.0,69.9,68.2,89,75,52,29.97,29.77,15,3,15,0.00
2013-5-28,90.7,80.5,73.7,71.3,69.3,67.3,85,70,50,29.85,29.70,14,4,14,0.00
2013-5-29,87.2,78.7,74.1,74.0,71.0,69.6,87,78,60,29.82,29.64,16,4,17,0.03
2013-5-30,91.0,81.6,75.7,74.2,71.5,70.2,85,72,53,29.78,29.68,15,3,15,0.00
2013-5-31,91.8,83.0,76.6,75.1,72.7,70.7,86,72,54,29.81,29.68,13,3,13,0.00